Change the Weather History Date:

Thursday, February 27, 2014

  Actual Average (KGTF) Record (KGTF)
Temperature  
Mean Temperature 20 °F 29 °F  
Max Temperature 32 °F 41 °F 70 °F (1992)
Min Temperature 9 °F 18 °F -22 °F (1917)
Degree Days  
Heating Degree Days 44 36  
Month to date heating degree days 1020  
Since 1 July heating degree days 5471  
Cooling Degree Days 0 0  
Month to date cooling degree days 0  
Year to date cooling degree days 0  
Moisture  
Dew Point 14 °F    
Average Humidity 75    
Maximum Humidity 84    
Minimum Humidity 61    
Precipitation  
Precipitation 0.00 in 0.02 in 0.34 in (1952)
Month to date precipitation 0.45  
Year to date precipitation 0.96  
Snow  
Snow 0.00 in 0.30 in 5.10 in (1952)
Month to date snowfall 7.9  
Since 1 July snowfall 39.7  
Snow Depth 3.00 in    
Sea Level Pressure  
Sea Level Pressure 29.83 in    
Wind  
Wind Speed 5 mph (NNW)    
Max Wind Speed 18 mph    
Max Gust Speed 25 mph    
Visibility 7 miles    
Events Snow    
T = Trace of Precipitation, MM = Missing Value Source: NWS Daily Summary

Daily Weather History Graph

Daily Weather History Graph

Search for Another Location

Airport or City:

Trip Planner

Search our weather history database for the weather conditions in past years. The results will help you decide how hot, cold, wet, or windy it might be!

Date:

Astronomy

Feb. 27, 2014 Rise Set
Actual Time 7:08 AM MST 6:06 PM MST
Civil Twilight 6:37 AM MST 6:37 PM MST
Nautical Twilight 6:02 AM MST 7:13 PM MST
Astronomical Twilight 5:26 AM MST 7:49 PM MST
Moon 5:48 AM MST 4:33 PM MST
Length of Visible Light 11h 59m
Length of Day
10h 58m
Waning Crescent, 4% of the Moon is Illuminated
Feb 27
Waning Crescent
Mar 1
New
Mar 8
First Quarter
Mar 16
Full
Mar 23
Last Quarter

Hourly Weather History & Observations

Time (MST) Temp. Windchill Dew Point Humidity Pressure Visibility Wind Dir Wind Speed Gust Speed Precip Events Conditions
12:56 AM 9.0 °F - 3.9 °F 80% 30.00 in 10.0 mi Calm Calm - N/A   Mostly Cloudy
1:56 AM 14.0 °F 8.2 °F 7.0 °F 74% 29.95 in 10.0 mi South 3.5 mph - N/A   Overcast
2:56 AM 16.0 °F - 9.0 °F 74% 29.92 in 10.0 mi Calm Calm - N/A   Overcast
3:56 AM 17.1 °F - 10.0 °F 74% 29.89 in 10.0 mi Calm Calm - N/A   Partly Cloudy
4:56 AM 14.0 °F - 9.0 °F 80% 29.90 in 10.0 mi Calm Calm - N/A   Clear
5:56 AM 10.9 °F 4.7 °F 6.1 °F 81% 29.90 in 10.0 mi SW 3.5 mph - N/A   Clear
6:56 AM 12.9 °F 6.9 °F 8.1 °F 81% 29.88 in 10.0 mi South 3.5 mph - N/A   Mostly Cloudy
7:56 AM 14.0 °F - 8.1 °F 77% 29.85 in 10.0 mi Calm Calm - N/A   Clear
8:56 AM 15.1 °F 6.4 °F 9.0 °F 77% 29.85 in 10.0 mi NNE 5.8 mph - N/A   Clear
9:56 AM 15.1 °F 7.7 °F 10.0 °F 80% 29.83 in 10.0 mi NE 4.6 mph - N/A   Scattered Clouds
10:56 AM 19.9 °F 12.1 °F 12.0 °F 71% 29.83 in 10.0 mi North 5.8 mph - N/A   Scattered Clouds
11:56 AM 21.0 °F 16.2 °F 14.0 °F 74% 29.79 in 10.0 mi NE 3.5 mph - N/A   Overcast
12:56 PM 23.0 °F - 15.1 °F 72% 29.78 in 10.0 mi Calm Calm - N/A   Overcast
1:56 PM 25.0 °F - 17.1 °F 72% 29.74 in 10.0 mi Calm Calm - N/A   Overcast
2:56 PM 28.0 °F 18.6 °F 19.9 °F 72% 29.71 in 10.0 mi South 10.4 mph - N/A   Overcast
3:56 PM 32.0 °F 26.4 °F 19.9 °F 61% 29.71 in 10.0 mi NNW 5.8 mph - N/A   Overcast
4:56 PM 28.9 °F 23.9 °F 21.0 °F 72% 29.76 in 10.0 mi NE 4.6 mph - N/A   Overcast
5:56 PM 28.0 °F 21.7 °F 21.0 °F 75% 29.81 in 10.0 mi NE 5.8 mph - N/A   Overcast
6:23 PM 30.2 °F 24.3 °F 23.0 °F 75% 29.59 in 7.0 mi NNW 5.8 mph - 0.00 in Snow Light Snow
6:51 PM 30.2 °F 21.9 °F 23.0 °F 75% 29.62 in 6.0 mi NNW 9.2 mph - 0.00 in Snow Light Snow
6:56 PM 30.0 °F 18.7 °F 21.9 °F 72% 29.85 in 7.0 mi NNW 16.1 mph 20.7 mph 0.00 in Snow Light Snow
7:13 PM 26.6 °F 13.8 °F 19.4 °F 74% 29.64 in 2.5 mi NNW 17.3 mph - 0.00 in Snow Light Snow
7:29 PM 26.6 °F 17.5 °F 17.6 °F 69% 29.66 in 4.0 mi NW 9.2 mph 21.9 mph 0.00 in Snow Light Snow
7:44 PM 24.8 °F 12.9 °F 15.8 °F 69% 29.67 in 2.0 mi NW 13.8 mph 25.3 mph 0.00 in Snow Light Snow
7:56 PM 25.0 °F 13.1 °F 14.0 °F 63% 29.92 in 3.0 mi NW 13.8 mph 21.9 mph 0.00 in Snow Light Snow
8:19 PM 21.2 °F 6.4 °F 12.2 °F 68% 29.70 in 6.0 mi WNW 18.4 mph 25.3 mph 0.00 in Snow Light Snow
8:56 PM 19.9 °F 6.7 °F 10.0 °F 65% 30.00 in 5.0 mi NW 13.8 mph 21.9 mph 0.00 in Snow Light Snow
9:21 PM 17.6 °F 4.3 °F 12.2 °F 79% 29.77 in 1.8 mi NNW 12.7 mph 24.2 mph 0.00 in Snow Light Snow
9:56 PM 17.1 °F 3.6 °F 12.9 °F 84% 30.06 in 1.2 mi NNW 12.7 mph - 0.00 in Snow Light Snow
10:34 PM 17.6 °F 4.3 °F 12.2 °F 79% 29.82 in 2.0 mi NW 12.7 mph - 0.00 in Snow Light Snow
10:51 PM 17.6 °F 6.4 °F 12.2 °F 79% 29.83 in 1.8 mi NW 9.2 mph - 0.00 in Snow Light Snow
10:56 PM 17.1 °F 7.6 °F 12.0 °F 81% 30.09 in 1.5 mi NNW 6.9 mph - 0.00 in Snow Light Snow
11:09 PM 17.6 °F 5.7 °F 12.2 °F 79% 29.84 in 2.0 mi NW 10.4 mph - 0.00 in Snow Light Snow
11:52 PM 17.6 °F 12.3 °F 12.2 °F 79% 29.86 in 4.0 mi West 3.5 mph - 0.00 in Snow Light Snow
11:56 PM 17.1 °F 11.7 °F 12.0 °F 81% 30.12 in 3.0 mi West 3.5 mph - 0.00 in Snow Light Snow